Weather History for Vacaville, CA

Change the Weather History Date:

Tuesday, June 4, 2013

  Actual Average Record
Temperature  
Mean Temperature 72 °F -  
Max Temperature 84 °F 86 °F 104 °F (1970)
Min Temperature 59 °F 52 °F 43 °F (1971)
Cooling Degree Days 6    
Growing Degree Days 22 (Base 50)    
Moisture  
Dew Point 50 °F    
Average Humidity 48    
Maximum Humidity 69    
Minimum Humidity 33    
Precipitation  
Precipitation 0.00 in - - ()
Sea Level Pressure  
Sea Level Pressure 29.82 in    
Wind  
Wind Speed 6 mph (SSW)    
Max Wind Speed 14 mph    
Max Gust Speed 21 mph    
Visibility 10 miles    
Events      
Averages and records for this station are not official NWS values.
T = Trace of Precipitation, MM = Missing Value Source: NWS Daily Summary

Daily Weather History Graph

Daily Weather History Graph

Search for Another Location

Airport:

Trip Planner

Search our weather history database for the weather conditions in past years. The results will help you decide how hot, cold, wet, or windy it might be!

Date:

Astronomy

Jun. 04, 2013 Rise Set
Actual Time 5:44 AM PDT 8:28 PM PDT
Civil Twilight 5:13 AM PDT 8:59 PM PDT
Nautical Twilight 4:34 AM PDT 9:38 PM PDT
Astronomical Twilight 3:50 AM PDT 10:22 PM PDT
Moon 3:15 AM PDT (6/4) 5:04 PM PDT (6/4)
Length of Visible Light 15h 45m
Length of Day
14h 43m
Waning Crescent, 13% of the Moon is Illuminated
Jun 4
Waning Crescent
Jun 8
New
Jun 16
First Quarter
Jun 23
Full
Jun 29
Last Quarter

Hourly Weather History & Observations

Time (PDT) Temp. Heat Index Dew Point Humidity Pressure Visibility Wind Dir Wind Speed Gust Speed Precip Events Conditions
12:53 AM 68.0 °F - 46.0 °F 45% 29.75 in 10.0 mi SSW 4.6 mph - N/A   Clear
1:53 AM 66.0 °F - 46.9 °F 50% 29.75 in 10.0 mi SW 4.6 mph - N/A   Clear
2:53 AM 64.0 °F - 46.0 °F 52% 29.76 in 10.0 mi SW 3.5 mph - N/A   Clear
3:53 AM 62.1 °F - 46.9 °F 58% 29.77 in 10.0 mi SW 4.6 mph - N/A   Clear
4:53 AM 59.0 °F - 48.9 °F 69% 29.79 in 10.0 mi Calm Calm - N/A   Clear
5:53 AM 62.1 °F - 46.9 °F 58% 29.80 in 10.0 mi SW 4.6 mph - N/A   Clear
6:53 AM 61.0 °F - 48.9 °F 64% 29.82 in 10.0 mi Calm Calm - N/A   Clear
7:53 AM 64.9 °F - 48.9 °F 56% 29.85 in 10.0 mi East 3.5 mph - N/A   Clear
8:53 AM 69.1 °F - 48.9 °F 49% 29.86 in 10.0 mi SSW 4.6 mph - N/A   Clear
9:53 AM 73.0 °F - 48.9 °F 42% 29.86 in 10.0 mi Calm Calm - N/A   Clear
10:53 AM 78.1 °F - 48.9 °F 36% 29.86 in 10.0 mi SSW 8.1 mph - N/A   Clear
11:53 AM 79.0 °F - 52.0 °F 39% 29.86 in 10.0 mi South 10.4 mph - N/A   Clear
12:53 PM 81.0 °F - 52.0 °F 36% 29.84 in 10.0 mi SSW 11.5 mph 19.6 mph N/A   Clear
1:53 PM 82.0 °F - 52.0 °F 35% 29.84 in 10.0 mi SSW 11.5 mph - N/A   Clear
2:53 PM 82.9 °F 81.8 °F 53.1 °F 36% 29.83 in 10.0 mi South 12.7 mph 18.4 mph N/A   Clear
3:53 PM 84.0 °F - 52.0 °F 33% 29.82 in 10.0 mi SSW 13.8 mph 20.7 mph N/A   Clear
4:53 PM 82.9 °F - 51.1 °F 33% 29.81 in 10.0 mi SSW 12.7 mph 19.6 mph N/A   Clear
5:53 PM 78.1 °F - 51.1 °F 39% 29.81 in 10.0 mi SSW 12.7 mph - N/A   Clear
6:53 PM 75.0 °F - 51.1 °F 43% 29.81 in 10.0 mi SSW 12.7 mph 18.4 mph N/A   Clear
7:53 PM 70.0 °F - 50.0 °F 49% 29.81 in 10.0 mi SSW 11.5 mph 18.4 mph N/A   Clear
8:53 PM 66.9 °F - 50.0 °F 54% 29.82 in 10.0 mi SW 12.7 mph 19.6 mph N/A   Clear
9:53 PM 66.0 °F - 50.0 °F 56% 29.83 in 10.0 mi SW 10.4 mph - N/A   Clear
10:53 PM 66.0 °F - 50.0 °F 56% 29.84 in 10.0 mi SW 6.9 mph - N/A   Clear
11:53 PM 62.1 °F - 51.1 °F 67% 29.85 in 10.0 mi SSW 10.4 mph - N/A   Clear